GW3468 Weather Reports


time (UTC)temp
F
wind
direction
speed
knots
gust
knots
rain 1hr
in
rain 24hr
in
rain mn
in
humidity
%
barometer
mb
20260503223534 66 252 2.6 5.2 0.00 0.00 0.00 35 1016.5
20260503223032 65 233 1.7 5.2 0.00 0.00 0.00 35 1016.5
20260503222530 66 242 2.6 6.1 0.00 0.00 0.00 35 1016.7
20260503222028 67 240 2.6 8.7 0.00 0.00 0.00 35 1016.7
20260503221527 67 238 0.9 3.5 0.00 0.00 0.00 35 1016.6
20260503221025 66 240 1.7 6.1 0.00 0.00 0.00 36 1016.8
20260503220544 66 267 3.5 6.1 0.00 0.00 0.00 34 1016.8
20260503220022 66 255 2.6 7.0 0.00 0.00 0.00 35 1016.8
20260503215520 67 241 2.6 7.8 0.00 0.00 0.00 34 1016.9
20260503215018 67 215 0.9 2.6 0.00 0.00 0.00 34 1016.9
20260503214516 67 248 1.7 7.0 0.00 0.00 0.00 34 1016.9
20260503214034 67 256 0.9 2.6 0.00 0.00 0.00 32 1016.9
20260503213533 67 255 0.9 3.5 0.00 0.00 0.00 32 1016.9
20260503213031 67 237 1.7 5.2 0.00 0.00 0.00 34 1017.1
20260503212529 66 249 1.7 5.2 0.00 0.00 0.00 34 1017.1
20260503212028 66 8 1.7 3.5 0.00 0.00 0.00 33 1017.1
20260503211527 66 237 2.6 6.1 0.00 0.00 0.00 34 1017.3
20260503211024 66 245 1.7 6.1 0.00 0.00 0.00 34 1017.2
20260503210523 65 302 1.7 7.0 0.00 0.00 0.00 34 1017.2
20260503210041 67 340 1.7 5.2 0.00 0.00 0.00 32 1017.4
20260503205519 67 222 1.7 6.1 0.00 0.00 0.00 33 1017.3
20260503205018 67 251 1.7 3.5 0.00 0.00 0.00 33 1017.5
20260503204516 66 282 1.7 6.1 0.00 0.00 0.00 33 1017.5
20260503204034 66 239 1.7 5.2 0.00 0.00 0.00 34 1017.7
20260503203532 67 240 1.7 3.5 0.00 0.00 0.00 33 1017.7
20260503203031 67 187 0.9 3.5 0.00 0.00 0.00 34 1017.7
20260503202529 66 201 0.9 2.6 0.00 0.00 0.00 36 1017.8
20260503202028 65 238 1.7 7.8 0.00 0.00 0.00 36 1018.0
20260503201526 67 245 2.6 5.2 0.00 0.00 0.00 34 1018.0
20260503201024 67 206 0.9 2.6 0.00 0.00 0.00 34 1018.2
20260503200522 66 231 1.7 2.6 0.00 0.00 0.00 34 1018.3
20260503200021 66 236 1.7 7.0 0.00 0.00 0.00 34 1018.3
20260503195519 64 248 0.9 3.5 0.00 0.00 0.00 35 1018.4
20260503195017 65 261 3.5 7.0 0.00 0.00 0.00 34 1018.4
20260503194516 65 237 1.7 5.2 0.00 0.00 0.00 34 1018.4
20260503194034 65 209 0.9 2.6 0.00 0.00 0.00 34 1018.6
20260503193532 66 292 0.9 2.6 0.00 0.00 0.00 34 1018.7
20260503193111 66 224 1.7 5.2 0.00 0.00 0.00 34 1018.7
20260503192529 65 237 0.9 2.6 0.00 0.00 0.00 34 1018.7
20260503192027 64 234 2.6 5.2 0.00 0.00 0.00 35 1018.9
20260503191525 65 248 2.6 6.1 0.00 0.00 0.00 34 1019.0
20260503191024 65 209 0.9 3.5 0.00 0.00 0.00 36 1019.1
20260503190522 65 227 0.9 2.6 0.00 0.00 0.00 34 1019.1
20260503190021 63 253 1.7 3.5 0.00 0.00 0.00 36 1019.1
20260503185519 63 269 2.6 7.0 0.00 0.00 0.00 35 1019.1
20260503185037 62 307 1.7 6.1 0.00 0.00 0.00 35 1019.3
20260503184515 63 264 2.6 7.0 0.00 0.00 0.00 35 1019.3
20260503184034 64 226 1.7 3.5 0.00 0.00 0.00 35 1019.2
20260503183532 64 142 0.9 2.6 0.00 0.00 0.00 36 1019.3
20260503183031 65 176 0.9 2.6 0.00 0.00 0.00 35 1019.3
20260503182529 63 160 0.9 2.6 0.00 0.00 0.00 37 1019.4
20260503182027 64 189 1.7 5.2 0.00 0.00 0.00 36 1019.6
20260503181525 62 228 1.7 5.2 0.00 0.00 0.00 37 1019.6
20260503181023 62 206 1.7 6.1 0.00 0.00 0.00 36 1019.7
20260503180522 62 239 1.7 3.5 0.00 0.00 0.00 37 1019.7
20260503180020 64 197 0.9 2.6 0.00 0.00 0.00 36 1019.9
20260503175558 63 175 1.7 3.5 0.00 0.00 0.00 37 1019.9
20260503175016 62 242 0.9 3.5 0.00 0.00 0.00 36 1019.9
20260503174535 62 182 1.7 6.1 0.00 0.00 0.00 35 1020.0
20260503174053 64 230 1.7 3.5 0.00 0.00 0.00 36 1020.0
20260503173531 64 167 0.9 3.5 0.00 0.00 0.00 35 1020.1
20260503173030 62 181 0.9 2.6 0.00 0.00 0.00 35 1020.1
20260503172528 60 176 1.7 3.5 0.00 0.00 0.00 35 1020.2
20260503172046 62 240 1.7 5.2 0.00 0.00 0.00 35 1020.4
20260503171524 62 165 1.7 6.1 0.00 0.00 0.00 35 1020.4
20260503171022 62 174 1.7 3.5 0.00 0.00 0.00 35 1020.4
20260503170541 62 186 1.7 3.5 0.00 0.00 0.00 35 1020.6
20260503150520 56 56 1.7 5.2 0.00 0.00 0.00 39 1021.5
20260503131020 52 119 0.9 1.7 0.00 0.00 0.00 55 1021.3
20260503130519 51 93 0.0 1.7 0.00 0.00 0.00 57 1021.4
20260503110517 38 0.0 0.0 0.00 0.00 0.00 84 1020.0
20260503081519 43 0.0 0.0 0.00 0.00 0.00 76 1018.7
20260503081017 43 0.0 0.0 0.00 0.00 0.00 76 1018.7
20260503080515 43 0.0 0.0 0.00 0.00 0.00 75 1018.7
20260503072522 45 125 0.0 0.9 0.00 0.00 0.00 71 1018.2
20260503072020 45 137 0.0 0.9 0.00 0.00 0.00 72 1018.2
20260503071518 45 143 0.0 0.9 0.00 0.00 0.00 72 1018.2
20260503071016 45 131 0.0 1.7 0.00 0.00 0.00 72 1018.1
20260503070535 44 129 0.0 0.9 0.00 0.00 0.00 72 1018.2
20260503055030 49 0.0 0.0 0.00 0.00 0.00 62 1018.0
20260503054548 49 136 0.9 0.9 0.00 0.00 0.00 62 1017.9
20260503054106 49 95 0.9 1.7 0.00 0.00 0.00 62 1017.8
20260503053524 50 107 0.0 1.7 0.00 0.00 0.00 62 1017.8
20260503053022 49 71 0.9 1.7 0.00 0.00 0.00 62 1017.7
20260503052521 50 136 0.0 0.9 0.00 0.00 0.00 62 1017.8
20260503052039 50 46 0.9 5.2 0.00 0.00 0.00 61 1017.8
20260503051538 49 89 0.9 2.6 0.00 0.00 0.00 62 1017.8
20260503051036 49 137 0.0 0.9 0.00 0.00 0.00 63 1017.7
20260503050534 49 134 0.0 1.7 0.00 0.00 0.00 63 1017.8
20260503050032 49 21 0.9 1.7 0.00 0.00 0.00 65 1017.8
20260503045530 49 0.0 0.0 0.00 0.00 0.00 65 1017.8
20260503045028 49 200 0.0 0.9 0.00 0.00 0.00 65 1017.8
20260503044527 49 0.0 0.0 0.00 0.00 0.00 64 1017.7
20260503044045 49 0.0 0.0 0.00 0.00 0.00 63 1017.6
20260503043523 49 148 0.0 0.9 0.00 0.00 0.00 63 1017.7
20260503043022 49 145 0.0 0.9 0.00 0.00 0.00 63 1017.7
20260503042640 49 0.0 0.0 0.00 0.00 0.00 63 1017.6
20260503042018 49 0.0 0.0 0.00 0.00 0.00 62 1017.7
20260503041536 50 0.0 0.0 0.00 0.00 0.00 61 1017.5
20260503040533 51 143 0.9 2.6 0.00 0.00 0.00 59 1017.4
20260503040031 51 117 0.9 2.6 0.00 0.00 0.00 59 1017.4
20260503035529 51 77 0.9 2.6 0.00 0.00 0.00 58 1017.4
20260503035028 52 19 1.7 5.2 0.00 0.00 0.00 57 1017.5
20260503034546 52 28 1.7 2.6 0.00 0.00 0.00 57 1017.5
20260503034024 52 21 0.9 2.6 0.00 0.00 0.00 56 1017.4
20260503033543 52 90 0.9 2.6 0.00 0.00 0.00 56 1017.4
20260503033021 52 110 0.9 3.5 0.00 0.00 0.00 56 1017.3
20260503032519 52 53 0.9 2.6 0.00 0.00 0.00 56 1017.4
20260503032017 52 23 1.7 7.0 0.00 0.00 0.00 56 1017.3
20260503031515 52 56 0.9 2.6 0.00 0.00 0.00 56 1017.4
20260503031054 52 51 0.9 3.5 0.00 0.00 0.00 56 1017.3
20260503030532 52 12 2.6 6.1 0.00 0.00 0.00 55 1017.3
20260503030031 52 19 1.7 5.2 0.00 0.00 0.00 55 1017.3
20260503025529 52 26 1.7 6.1 0.00 0.00 0.00 55 1017.2
20260503025027 53 352 1.7 5.2 0.00 0.00 0.00 55 1017.3
20260503024605 53 11 1.7 3.5 0.00 0.00 0.00 54 1017.1
20260503024024 53 37 1.7 3.5 0.00 0.00 0.00 54 1017.0
20260503023021 53 14 1.7 3.5 0.00 0.00 0.00 54 1017.1
20260503022539 53 17 0.9 2.6 0.00 0.00 0.00 54 1016.9
20260503022017 53 32 1.7 6.1 0.00 0.00 0.00 54 1016.9
20260503021535 53 40 0.9 2.6 0.00 0.00 0.00 55 1016.9
20260503021034 53 71 0.9 3.5 0.00 0.00 0.00 54 1016.7
20260503020532 53 34 1.7 5.2 0.00 0.00 0.00 54 1016.8
20260503020030 53 10 1.7 5.2 0.00 0.00 0.00 54 1016.7
20260503015528 53 358 1.7 3.5 0.00 0.00 0.00 54 1016.6
20260503015027 53 15 1.7 3.5 0.00 0.00 0.00 54 1016.5
20260503014545 53 62 1.7 2.6 0.00 0.00 0.00 54 1016.3
20260503014043 53 70 0.9 2.6 0.00 0.00 0.00 54 1016.4
20260503013522 53 164 0.9 2.6 0.00 0.00 0.00 54 1016.3
20260503013020 53 78 0.9 2.6 0.00 0.00 0.00 54 1016.3
20260503012518 53 49 0.9 2.6 0.00 0.00 0.00 54 1016.3
20260503012016 53 39 0.9 1.7 0.00 0.00 0.00 53 1016.1
20260503011555 53 73 0.9 1.7 0.00 0.00 0.00 54 1016.1
20260503011033 53 99 0.9 2.6 0.00 0.00 0.00 54 1016.0
20260503010531 53 74 0.9 2.6 0.00 0.00 0.00 54 1016.0
20260503010030 53 98 0.9 3.5 0.00 0.00 0.00 54 1015.9
20260503005528 53 103 0.9 2.6 0.00 0.00 0.00 53 1015.9
20260503005026 53 96 0.9 3.5 0.00 0.00 0.00 53 1015.8
20260503004525 54 98 0.9 3.5 0.00 0.00 0.00 52 1015.6
20260503004023 54 128 0.0 0.9 0.00 0.00 0.00 52 1015.6
20260503003521 54 35 0.9 2.6 0.00 0.00 0.00 51 1015.5
20260503003040 54 100 0.9 1.7 0.00 0.00 0.00 51 1015.5
20260503002518 55 97 0.9 1.7 0.00 0.00 0.00 50 1015.5
20260503002016 55 113 0.9 3.5 0.00 0.00 0.00 49 1015.3
20260503001535 55 127 0.9 2.6 0.00 0.00 0.00 48 1015.3
20260503001033 56 45 0.9 3.5 0.00 0.00 0.00 47 1015.2
20260503000531 56 5 1.7 5.2 0.00 0.00 0.00 47 1015.1
20260503000049 57 56 0.9 2.6 0.00 0.00 0.00 45 1015.0
20260502235548 57 39 1.7 5.2 0.00 0.00 0.00 44 1015.0
20260502235026 57 14 1.7 6.1 0.00 0.00 0.00 43 1014.8
20260502234524 58 30 1.7 2.6 0.00 0.00 0.00 43 1014.8
20260502234022 58 37 1.7 6.1 0.00 0.00 0.00 43 1014.8
20260502233520 58 25 2.6 5.2 0.00 0.00 0.00 42 1014.8
20260502233019 58 6 1.7 2.6 0.00 0.00 0.00 42 1014.7
20260502232517 59 22 2.6 7.0 0.00 0.00 0.00 41 1014.7
20260502232035 59 14 1.7 6.1 0.00 0.00 0.00 42 1014.7
20260502231534 59 63 0.9 3.5 0.00 0.00 0.00 42 1014.7
20260502231032 59 28 1.7 5.2 0.00 0.00 0.00 42 1014.7
20260502230530 59 21 1.7 5.2 0.00 0.00 0.00 41 1014.6
20260502230028 59 16 0.9 3.5 0.00 0.00 0.00 42 1014.7
20260502225527 59 354 2.6 7.0 0.00 0.00 0.00 41 1014.7
20260502225026 59 12 1.7 6.1 0.00 0.00 0.00 41 1014.6
20260502224523 61 11 2.6 8.7 0.00 0.00 0.00 39 1014.6
20260502224022 61 28 1.7 5.2 0.00 0.00 0.00 39 1014.6